Location: ???????
(54.9567°N, 38.2836°E)
Time: 14:15:59
(UTC+00:00)

Cosmos 1975 - Pass Details

Date: 14 April 2024
Orbit: 514 x 533 km, 82.5° (Epoch: 24 May)

Event Time Altitude Azimuth Distance (km) Brightness Sun altitude
Rises 01:20:25 0° 344° (NNW) 2,650 6.5 -9.3°
Reaches altitude 10° 01:22:36 10° 340° (NNW) 1,759 5.5 -9.0°
Maximum altitude 01:26:20 50° 264° (W) 667 2.9 -8.6°
Drops below altitude 10° 01:30:03 10° 189° (S) 1,752 5.0 -8.1°
Sets 01:32:13 0° 184° (S) 2,638 6.0 -7.9°
